| time (UTC) | temp F | wind direction | speed MPH | gust MPH | rain 1hr in | rain 24hr in | rain mn in | humidity % | barometer mb |
| 20260509143603 | 63 | 207 | 3.0 | 7.0 | 0.00 | 0.00 | 0.00 | 19 | |
| 20260509142703 | 63 | 172 | 4.0 | 10.0 | 0.00 | 0.00 | 0.00 | 19 | |
| 20260509141803 | 63 | 160 | 3.0 | 9.0 | 0.00 | 0.00 | 0.00 | 21 | |
| 20260509140903 | 63 | 179 | 4.0 | 11.0 | 0.00 | 0.00 | 0.00 | 19 | |
| 20260509140003 | 62 | 164 | 4.0 | 9.0 | 0.00 | 0.00 | 0.00 | 20 | |
| 20260509135403 | 62 | 171 | 4.0 | 7.0 | 0.00 | 0.00 | 0.00 | 18 | |
| 20260509134503 | 63 | 189 | 4.0 | 10.0 | 0.00 | 0.00 | 0.00 | 22 | |
| 20260509133603 | 62 | 189 | 4.0 | 10.0 | 0.00 | 0.00 | 0.00 | 22 | |
| 20260509132703 | 62 | 285 | 4.0 | 12.0 | 0.00 | 0.00 | 0.00 | 20 | |
| 20260509131803 | 62 | 195 | 3.0 | 9.0 | 0.00 | 0.00 | 0.00 | 19 | |
| 20260509130903 | 62 | 205 | 2.0 | 5.0 | 0.00 | 0.00 | 0.00 | 19 | |
| 20260509130003 | 62 | 197 | 3.0 | 7.0 | 0.00 | 0.00 | 0.00 | 19 | |
| 20260509125618 | 62 | 192 | 3.0 | 8.0 | 0.00 | 0.00 | 0.00 | 18 | |
| 20260509124717 | 62 | 162 | 2.0 | 8.0 | 0.00 | 0.00 | 0.00 | 21 | |
| 20260509123603 | 62 | 169 | 3.0 | 7.0 | 0.00 | 0.00 | 0.00 | 20 | |
| 20260509122703 | 61 | 157 | 4.0 | 14.0 | 0.00 | 0.00 | 0.00 | 21 | |
| 20260509121803 | 61 | 170 | 4.0 | 10.0 | 0.00 | 0.00 | 0.00 | 20 | |
| 20260509120903 | 61 | 122 | 4.0 | 11.0 | 0.00 | 0.00 | 0.00 | 21 | |
| 20260509120218 | 62 | 168 | 4.0 | 10.0 | 0.00 | 0.00 | 0.00 | 21 | |
| 20260509115403 | 61 | 151 | 4.0 | 14.0 | 0.00 | 0.00 | 0.00 | 21 | |
| 20260509114503 | 60 | 161 | 4.0 | 8.0 | 0.00 | 0.00 | 0.00 | 22 | |
| 20260509113603 | 61 | 178 | 4.0 | 12.0 | 0.00 | 0.00 | 0.00 | 23 | |
| 20260509112703 | 60 | 161 | 3.0 | 7.0 | 0.00 | 0.00 | 0.00 | 23 | |
| 20260509111803 | 60 | 168 | 5.0 | 12.0 | 0.00 | 0.00 | 0.00 | 22 | |
| 20260509111118 | 60 | 178 | 4.0 | 12.0 | 0.00 | 0.00 | 0.00 | 22 | |
| 20260509110217 | 60 | 175 | 5.0 | 11.0 | 0.00 | 0.00 | 0.00 | 21 | |
| 20260509105403 | 59 | 157 | 3.0 | 10.0 | 0.00 | 0.00 | 0.00 | 26 | |
| 20260509104503 | 59 | 155 | 4.0 | 12.0 | 0.00 | 0.00 | 0.00 | 22 | |
| 20260509103603 | 59 | 166 | 5.0 | 12.0 | 0.00 | 0.00 | 0.00 | 22 | |
| 20260509102703 | 59 | 159 | 4.0 | 9.0 | 0.00 | 0.00 | 0.00 | 22 | |
| 20260509101803 | 59 | 149 | 3.0 | 10.0 | 0.00 | 0.00 | 0.00 | 25 | |
| 20260509100903 | 59 | 164 | 3.0 | 10.0 | 0.00 | 0.00 | 0.00 | 23 | |
| 20260509100004 | 59 | 170 | 4.0 | 11.0 | 0.00 | 0.00 | 0.00 | 25 | |
| 20260509095403 | 58 | 162 | 3.0 | 7.0 | 0.00 | 0.00 | 0.00 | 23 | |
| 20260509094716 | 58 | 146 | 3.0 | 11.0 | 0.00 | 0.00 | 0.00 | 25 | |
| 20260509093603 | 58 | 157 | 4.0 | 15.0 | 0.00 | 0.00 | 0.00 | 22 | |
| 20260509092703 | 58 | 171 | 3.0 | 12.0 | 0.00 | 0.00 | 0.00 | 24 | |
| 20260509091803 | 57 | 155 | 3.0 | 10.0 | 0.00 | 0.00 | 0.00 | 26 | |
| 20260509090903 | 57 | 170 | 3.0 | 10.0 | 0.00 | 0.00 | 0.00 | 27 | |
| 20260509090003 | 56 | 167 | 2.0 | 10.0 | 0.00 | 0.00 | 0.00 | 28 | |
| 20260509085616 | 56 | 184 | 3.0 | 13.0 | 0.00 | 0.00 | 0.00 | 31 | |
| 20260509084503 | 55 | 170 | 3.0 | 10.0 | 0.00 | 0.00 | 0.00 | 27 | |
| 20260509083603 | 55 | 163 | 3.0 | 9.0 | 0.00 | 0.00 | 0.00 | 31 | |
| 20260509082918 | 54 | 166 | 2.0 | 7.0 | 0.00 | 0.00 | 0.00 | 30 | |
| 20260509081803 | 54 | 164 | 2.0 | 6.0 | 0.00 | 0.00 | 0.00 | 31 | |
| 20260509080903 | 54 | 153 | 2.0 | 9.0 | 0.00 | 0.00 | 0.00 | 34 | |
| 20260509080003 | 53 | 176 | 3.0 | 11.0 | 0.00 | 0.00 | 0.00 | 32 | |
| 20260509075403 | 53 | 172 | 2.0 | 11.0 | 0.00 | 0.00 | 0.00 | 34 | |
| 20260509074503 | 52 | 147 | 2.0 | 7.0 | 0.00 | 0.00 | 0.00 | 36 | |
| 20260509073603 | 52 | 175 | 3.0 | 10.0 | 0.00 | 0.00 | 0.00 | 37 | |
| 20260509072703 | 51 | 181 | 3.0 | 12.0 | 0.00 | 0.00 | 0.00 | 37 | |
| 20260509071803 | 51 | 155 | 3.0 | 11.0 | 0.00 | 0.00 | 0.00 | 36 | |
| 20260509070903 | 51 | 150 | 1.0 | 5.0 | 0.00 | 0.00 | 0.00 | 39 | |
| 20260509070216 | 50 | 156 | 1.0 | 5.0 | 0.00 | 0.00 | 0.00 | 42 | |
| 20260509065403 | 48 | 177 | 2.0 | 5.0 | 0.00 | 0.00 | 0.00 | 47 | |
| 20260509064503 | 47 | 157 | 1.0 | 5.0 | 0.00 | 0.00 | 0.00 | 48 | |
| 20260509063603 | 46 | 152 | 1.0 | 5.0 | 0.00 | 0.00 | 0.00 | 49 | |
| 20260509062703 | 45 | 135 | 1.0 | 4.0 | 0.00 | 0.00 | 0.00 | 51 | |
| 20260509061803 | 44 | 115 | 0.0 | 3.0 | 0.00 | 0.00 | 0.00 | 57 | |
| 20260509060903 | 43 | 135 | 1.0 | 5.0 | 0.00 | 0.00 | 0.00 | 56 | |
| 20260509060215 | 42 | 125 | 1.0 | 5.0 | 0.00 | 0.00 | 0.00 | 58 | |
| 20260509055403 | 41 | 122 | 0.0 | 3.0 | 0.00 | 0.00 | 0.00 | 61 | |
| 20260509054718 | 40 | 155 | 0.0 | 3.0 | 0.00 | 0.00 | 0.00 | 63 | |
| 20260509053818 | 39 | 101 | 0.0 | 3.0 | 0.00 | 0.00 | 0.00 | 62 | |
| 20260509052703 | 38 | 98 | 0.0 | 1.0 | 0.00 | 0.00 | 0.00 | 66 | |
| 20260509051803 | 37 | 150 | 0.0 | 2.0 | 0.00 | 0.00 | 0.00 | 68 | |
| 20260509050903 | 36 | 69 | 0.0 | 1.0 | 0.00 | 0.00 | 0.00 | 73 | |
| 20260509050003 | 36 | 90 | 0.0 | 1.0 | 0.00 | 0.00 | 0.00 | 72 | |
| 20260509045403 | 35 | 94 | 0.0 | 1.0 | 0.00 | 0.00 | 0.00 | 72 | |
| 20260509044718 | 35 | 0 | 0.0 | 0.0 | 0.00 | 0.00 | 0.00 | 72 | |
| 20260509043603 | 34 | 0 | 0.0 | 0.0 | 0.00 | 0.00 | 0.00 | 73 | |
| 20260509042703 | 34 | 0 | 0.0 | 0.0 | 0.00 | 0.00 | 0.00 | 74 | |
| 20260509041803 | 33 | 0 | 0.0 | 0.0 | 0.00 | 0.00 | 0.00 | 73 | |
| 20260509040903 | 33 | 0 | 0.0 | 0.0 | 0.00 | 0.00 | 0.00 | 73 | |
| 20260509040003 | 33 | 0 | 0.0 | 0.0 | 0.00 | 0.00 | 0.00 | 74 | |
| 20260509035403 | 33 | 0 | 0.0 | 0.0 | 0.00 | 0.00 | 0.00 | 73 | |
| 20260509034503 | 33 | 0 | 0.0 | 0.0 | 0.00 | 0.00 | 0.00 | 73 | |
| 20260509033603 | 33 | 0 | 0.0 | 0.0 | 0.00 | 0.00 | 0.00 | 72 | |
| 20260509032703 | 33 | 0 | 0.0 | 0.0 | 0.00 | 0.00 | 0.00 | 72 | |
| 20260509031803 | 33 | 0 | 0.0 | 0.0 | 0.00 | 0.00 | 0.00 | 73 | |
| 20260509031119 | 33 | 0 | 0.0 | 0.0 | 0.00 | 0.00 | 0.00 | 73 | |
| 20260509030003 | 33 | 0 | 0.0 | 0.0 | 0.00 | 0.00 | 0.00 | 71 | |
| 20260509025403 | 34 | 0 | 0.0 | 0.0 | 0.00 | 0.00 | 0.00 | 70 | |
| 20260509024503 | 34 | 0 | 0.0 | 0.0 | 0.00 | 0.00 | 0.00 | 71 | |
| 20260509023603 | 34 | 0 | 0.0 | 0.0 | 0.00 | 0.00 | 0.00 | 71 | |
| 20260509022703 | 33 | 0 | 0.0 | 0.0 | 0.00 | 0.00 | 0.00 | 70 | |
| 20260509022015 | 33 | 0 | 0.0 | 0.0 | 0.00 | 0.00 | 0.00 | 67 | |
| 20260509020903 | 34 | 0 | 0.0 | 0.0 | 0.00 | 0.00 | 0.00 | 66 | |
| 20260509020003 | 34 | 0 | 0.0 | 0.0 | 0.00 | 0.00 | 0.00 | 65 | |
| 20260509015617 | 34 | 0 | 0.0 | 0.0 | 0.00 | 0.00 | 0.00 | 64 | |
| 20260509014503 | 35 | 0 | 0.0 | 0.0 | 0.00 | 0.00 | 0.00 | 63 | |
| 20260509013603 | 36 | 0 | 0.0 | 0.0 | 0.00 | 0.00 | 0.00 | 62 | |
| 20260509012703 | 36 | 0 | 0.0 | 0.0 | 0.00 | 0.00 | 0.00 | 61 | |
| 20260509011803 | 37 | 0 | 0.0 | 0.0 | 0.00 | 0.00 | 0.00 | 61 | |
| 20260509010903 | 37 | 0 | 0.0 | 0.0 | 0.00 | 0.00 | 0.00 | 61 | |
| 20260509010003 | 37 | 0 | 0.0 | 0.0 | 0.00 | 0.00 | 0.00 | 60 | |
| 20260509005403 | 38 | 0 | 0.0 | 0.0 | 0.00 | 0.00 | 0.00 | 60 | |
| 20260509004503 | 38 | 0 | 0.0 | 0.0 | 0.00 | 0.00 | 0.00 | 61 | |
| 20260509003603 | 38 | 0 | 0.0 | 0.0 | 0.00 | 0.00 | 0.00 | 61 | |
| 20260509002703 | 38 | 0 | 0.0 | 0.0 | 0.00 | 0.00 | 0.00 | 61 | |
| 20260509001803 | 39 | 0 | 0.0 | 0.0 | 0.00 | 0.00 | 0.00 | 62 | |
| 20260509000903 | 39 | 0 | 0.0 | 0.0 | 0.00 | 0.00 | 0.00 | 59 | |
| 20260509000219 | 39 | 0 | 0.0 | 0.0 | 0.00 | 0.00 | 0.00 | 58 | |
| 20260508235403 | 39 | 0 | 0.0 | 0.0 | 0.00 | 0.00 | 0.00 | 57 | |
| 20260508234503 | 40 | 0 | 0.0 | 0.0 | 0.00 | 0.00 | 0.00 | 56 | |
| 20260508233603 | 40 | 0 | 0.0 | 0.0 | 0.00 | 0.00 | 0.00 | 52 | |
| 20260508232703 | 40 | 0 | 0.0 | 0.0 | 0.00 | 0.00 | 0.00 | 51 | |
| 20260508231803 | 40 | 95 | 0.0 | 1.0 | 0.00 | 0.00 | 0.00 | 51 | |
| 20260508230903 | 41 | 89 | 0.0 | 1.0 | 0.00 | 0.00 | 0.00 | 51 | |
| 20260508230003 | 41 | 89 | 0.0 | 1.0 | 0.00 | 0.00 | 0.00 | 51 | |
| 20260508225403 | 41 | 0 | 0.0 | 0.0 | 0.00 | 0.00 | 0.00 | 52 | |
| 20260508224503 | 41 | 0 | 0.0 | 0.0 | 0.00 | 0.00 | 0.00 | 53 | |
| 20260508223603 | 41 | 83 | 0.0 | 1.0 | 0.00 | 0.00 | 0.00 | 50 | |
| 20260508222703 | 42 | 0 | 0.0 | 0.0 | 0.00 | 0.00 | 0.00 | 51 | |
| 20260508221803 | 42 | 87 | 0.0 | 2.0 | 0.00 | 0.00 | 0.00 | 49 | |
| 20260508220903 | 42 | 90 | 0.0 | 2.0 | 0.00 | 0.00 | 0.00 | 48 | |
| 20260508220003 | 43 | 0 | 0.0 | 0.0 | 0.00 | 0.00 | 0.00 | 48 | |
| 20260508215403 | 43 | 0 | 0.0 | 0.0 | 0.00 | 0.00 | 0.00 | 47 | |
| 20260508214503 | 43 | 95 | 0.0 | 1.0 | 0.00 | 0.00 | 0.00 | 46 | |
| 20260508213603 | 44 | 128 | 0.0 | 3.0 | 0.00 | 0.00 | 0.00 | 46 | |
| 20260508212703 | 44 | 92 | 0.0 | 1.0 | 0.00 | 0.00 | 0.00 | 45 | |
| 20260508211803 | 44 | 97 | 0.0 | 2.0 | 0.00 | 0.00 | 0.00 | 45 | |
| 20260508210903 | 45 | 115 | 0.0 | 3.0 | 0.00 | 0.00 | 0.00 | 43 | |
| 20260508210003 | 46 | 123 | 0.0 | 3.0 | 0.00 | 0.00 | 0.00 | 42 | |
| 20260508205403 | 46 | 131 | 0.0 | 3.0 | 0.00 | 0.00 | 0.00 | 41 | |
| 20260508204503 | 47 | 131 | 0.0 | 4.0 | 0.00 | 0.00 | 0.00 | 40 | |
| 20260508203603 | 47 | 147 | 1.0 | 4.0 | 0.00 | 0.00 | 0.00 | 41 | |
| 20260508202703 | 47 | 155 | 1.0 | 6.0 | 0.00 | 0.00 | 0.00 | 38 | |
| 20260508201803 | 47 | 149 | 1.0 | 5.0 | 0.00 | 0.00 | 0.00 | 38 | |
| 20260508200903 | 48 | 144 | 0.0 | 3.0 | 0.00 | 0.00 | 0.00 | 39 | |
| 20260508200216 | 48 | 129 | 0.0 | 3.0 | 0.00 | 0.00 | 0.00 | 38 | |
| 20260508195403 | 48 | 127 | 0.0 | 4.0 | 0.00 | 0.00 | 0.00 | 40 | |
| 20260508194503 | 48 | 141 | 1.0 | 4.0 | 0.00 | 0.00 | 0.00 | 40 | |
| 20260508193818 | 49 | 131 | 0.0 | 4.0 | 0.00 | 0.00 | 0.00 | 38 | |
| 20260508192917 | 49 | 135 | 1.0 | 6.0 | 0.00 | 0.00 | 0.00 | 38 | |
| 20260508191803 | 50 | 152 | 1.0 | 4.0 | 0.00 | 0.00 | 0.00 | 35 | |
| 20260508191116 | 51 | 141 | 0.0 | 3.0 | 0.00 | 0.00 | 0.00 | 34 | |
| 20260508190003 | 52 | 142 | 1.0 | 4.0 | 0.00 | 0.00 | 0.00 | 33 | |
| 20260508185403 | 52 | 148 | 2.0 | 7.0 | 0.00 | 0.00 | 0.00 | 33 | |
| 20260508184503 | 53 | 150 | 1.0 | 10.0 | 0.00 | 0.00 | 0.00 | 33 | |
| 20260508183603 | 53 | 140 | 1.0 | 6.0 | 0.00 | 0.00 | 0.00 | 31 | |
| 20260508182703 | 54 | 164 | 1.0 | 6.0 | 0.00 | 0.00 | 0.00 | 31 | |
| 20260508181803 | 54 | 157 | 2.0 | 11.0 | 0.00 | 0.00 | 0.00 | 29 | |
| 20260508180903 | 55 | 167 | 4.0 | 14.0 | 0.00 | 0.00 | 0.00 | 28 | |
| 20260508180003 | 56 | 161 | 2.0 | 10.0 | 0.00 | 0.00 | 0.00 | 28 | |
| 20260508175403 | 56 | 160 | 3.0 | 12.0 | 0.00 | 0.00 | 0.00 | 28 | |
| 20260508174503 | 55 | 163 | 1.0 | 8.0 | 0.00 | 0.00 | 0.00 | 28 | |
| 20260508173603 | 56 | 179 | 2.0 | 8.0 | 0.00 | 0.00 | 0.00 | 28 | |
| 20260508172703 | 56 | 147 | 2.0 | 11.0 | 0.00 | 0.00 | 0.00 | 29 | |
| 20260508171803 | 56 | 155 | 3.0 | 10.0 | 0.00 | 0.00 | 0.00 | 28 | |
| 20260508170903 | 57 | 151 | 4.0 | 19.0 | 0.00 | 0.00 | 0.00 | 28 | |
| 20260508170003 | 57 | 159 | 4.0 | 11.0 | 0.00 | 0.00 | 0.00 | 29 | |
| 20260508165618 | 58 | 165 | 4.0 | 10.0 | 0.00 | 0.00 | 0.00 | 28 | |
| 20260508164503 | 58 | 164 | 4.0 | 12.0 | 0.00 | 0.00 | 0.00 | 28 | |
| 20260508163603 | 58 | 173 | 3.0 | 12.0 | 0.00 | 0.00 | 0.00 | 28 | |
| 20260508162916 | 59 | 159 | 3.0 | 9.0 | 0.00 | 0.00 | 0.00 | 27 | |
| 20260508161803 | 60 | 158 | 4.0 | 10.0 | 0.00 | 0.00 | 0.00 | 26 | |
| 20260508160903 | 60 | 170 | 4.0 | 14.0 | 0.00 | 0.00 | 0.00 | 25 | |
| 20260508160003 | 60 | 157 | 4.0 | 13.0 | 0.00 | 0.00 | 0.00 | 27 | |
| 20260508155618 | 60 | 162 | 5.0 | 13.0 | 0.00 | 0.00 | 0.00 | 26 | |
| 20260508154503 | 60 | 168 | 3.0 | 8.0 | 0.00 | 0.00 | 0.00 | 27 | |
| 20260508153603 | 61 | 168 | 3.0 | 8.0 | 0.00 | 0.00 | 0.00 | 28 | |
| 20260508152703 | 62 | 163 | 4.0 | 10.0 | 0.00 | 0.00 | 0.00 | 26 | |
| 20260508151803 | 63 | 178 | 5.0 | 13.0 | 0.00 | 0.00 | 0.00 | 26 | |
| 20260508150903 | 63 | 166 | 5.0 | 11.0 | 0.00 | 0.00 | 0.00 | 25 | |
| 20260508150218 | 61 | 149 | 4.0 | 12.0 | 0.00 | 0.00 | 0.00 | 28 | |
| 20260508145403 | 61 | 154 | 3.0 | 12.0 | 0.00 | 0.00 | 0.00 | 27 | |
| 20260508144503 | 61 | 178 | 3.0 | 11.0 | 0.00 | 0.00 | 0.00 | 26 | |
| 20260508143816 | 62 | 175 | 2.0 | 4.0 | 0.00 | 0.00 | 0.00 | 26 |